sat.trackr.live / text

‹ back to catalog

COSMOS 2604

NORAD 67678 · 2026-023E

PAYLOAD ACTIVE UNKNOWN

§ Identity

Operator
Country
CIS
Launch date
2026-02-05
Launch site
PLMSC
Launch vehicle
Mass (kg)
RCS (m²)

External: N2YO · Heavens-Above · Gunter

§ Orbital elements

Epoch: 2026-05-25T03:27:43.302816Z

Period
94.44 min
Inclination
96.6221°
Eccentricity
0.0017533
Mean motion
15.24784572 rev/d
Perigee alt
479.4 km
Apogee alt
503.5 km
Semi-major
6,869.6 km
B*
3.9494e-4
RAAN
209.2382°
Arg perigee
209.2847°
Mean anomaly
150.7412°
Rev number
1,649

§ Raw data

COSMOS 26041 67678U 26023E   26145.14425119  .00009777  00000+0  39494-3 0  99932 67678  96.6221 209.2382 0017533 209.2847 150.7412 15.24784572 16494

JSON: /api/v1/satellites/67678 · /tle

For live sub-satellite position, see the globe view (requires WebGL).

§ Visibility from observer

Set your observer location to see the next 7 days of passes ≥ 10°. The values pass through the URL so the page stays shareable.

No JS? Fill the form by hand. The geolocation button needs JavaScript.